Fort Wayne, IN

12:29 AM EDT on March 24, 2017 (GMT -0400)
Fort Wayne International

Weather History for KFWA - June, 2012

Change the Weather History Date:

Saturday, June 30, 2012

  Actual Average Record
Temperature  
Mean Temperature 77 °F 74 °F  
Max Temperature 90 °F 84 °F 99 °F (1953)
Min Temperature 64 °F 63 °F 42 °F (1943)
Degree Days  
Heating Degree Days 0 0  
Month to date heating degree days 26 29  
Since 1 June heating degree days 26 29  
Since 1 July heating degree days 4880 6101  
Cooling Degree Days 12 9  
Month to date cooling degree days 243 182  
Year to date cooling degree days 396 239  
Since 1 June cooling degree days 243 182  
Growing Degree Days 27 (Base 50)    
Moisture  
Dew Point 67 °F    
Average Humidity 73    
Maximum Humidity 100    
Minimum Humidity 46    
Precipitation  
Precipitation 0.14 in 0.12 in 1.75 in (1981)
Month to date precipitation 0.65 4.16  
Year to date precipitation 11.00 18.96  
Snow  
Snow 0.00 in 0.00 in - ()
Month to date snowfall 0.0 0.0  
Since 1 June snowfall 0.0  
Since 1 July snowfall 32.2 33.5  
Snow Depth 0.00 in    
Sea Level Pressure  
Sea Level Pressure 29.85 in    
Wind  
Wind Speed 9 mph (West)    
Max Wind Speed 15 mph    
Max Gust Speed 22 mph    
Visibility 10 miles    
Events Rain , Thunderstorm    
T = Trace of Precipitation, MM = Missing Value Source: NWS Daily Summary

Daily Weather History Graph

Daily Weather History Graph

Search for Another Location

Airport or City:

Trip Planner

Search our weather history database for the weather conditions in past years. The results will help you decide how hot, cold, wet, or windy it might be!

Date:

Astronomy

Jun. 30, 2012 Rise Set
Actual Time 6:12 AM EDT 9:16 PM EDT
Civil Twilight 5:38 AM EDT 9:50 PM EDT
Nautical Twilight 4:56 AM EDT 10:32 PM EDT
Astronomical Twilight 4:05 AM EDT 11:23 PM EDT
Moon 6:11 PM EDT (6/30) 3:07 AM EDT (6/30)
Length of Visible Light 16h 11m
Length of Day
15h 04m
Waxing Gibbous, 87% of the Moon is Illuminated
Jun 30
Waxing Gibbous
Jul 3
Full
Jul 10
Last Quarter
Jul 19
New
Jul 26
First Quarter

Hourly Weather History & Observations

Time (EDT) Temp. Heat Index Dew Point Humidity Pressure Visibility Wind Dir Wind Speed Gust Speed Precip Events Conditions
12:54 AM 64.4 °F - 62.6 °F 94% 29.86 in 10.0 mi SSW 5.8 mph - N/A   Scattered Clouds
1:54 AM 64.4 °F - 62.6 °F 94% 29.85 in 10.0 mi WSW 3.5 mph - N/A   Overcast
2:54 AM 66.2 °F - 66.2 °F 100% 29.86 in 10.0 mi West 5.8 mph - N/A   Overcast
3:54 AM 69.8 °F - 66.2 °F 88% 29.82 in 10.0 mi NNE 10.4 mph 16.1 mph N/A   Overcast
4:54 AM 69.8 °F - 66.2 °F 88% 29.90 in 10.0 mi WNW 13.8 mph - 0.02 in Rain , Thunderstorm Light Thunderstorms and Rain
5:54 AM 68.0 °F - 66.2 °F 94% 29.89 in 9.0 mi SSW 12.7 mph 21.9 mph 0.09 in Rain , Thunderstorm Light Thunderstorms and Rain
6:39 AM 68.0 °F - 66.2 °F 94% 29.84 in 9.0 mi South 8.1 mph - 0.05 in Rain Light Rain
7:54 AM 68.0 °F - 66.2 °F 94% 29.82 in 10.0 mi SSW 4.6 mph - N/A   Mostly Cloudy
8:54 AM 71.6 °F - 66.2 °F 83% 29.83 in 10.0 mi WSW 3.5 mph - N/A   Mostly Cloudy
9:54 AM 77.0 °F - 68.0 °F 74% 29.85 in 10.0 mi WNW 5.8 mph - N/A   Scattered Clouds
10:54 AM 80.6 °F 83.2 °F 68.0 °F 65% 29.85 in 10.0 mi West 10.4 mph - N/A   Scattered Clouds
11:54 AM 84.2 °F 86.6 °F 66.2 °F 55% 29.85 in 10.0 mi NNW 12.7 mph - N/A   Overcast
12:54 PM 87.8 °F 89.4 °F 64.4 °F 46% 29.85 in 10.0 mi WNW 12.7 mph 20.7 mph N/A   Overcast
1:54 PM 89.6 °F 92.2 °F 66.2 °F 46% 29.85 in 10.0 mi WNW 15.0 mph 20.7 mph N/A   Overcast
2:54 PM 87.8 °F 90.4 °F 66.2 °F 49% 29.83 in 10.0 mi West 11.5 mph 20.7 mph N/A   Overcast
3:54 PM 87.8 °F 90.4 °F 66.2 °F 49% 29.81 in 10.0 mi West 4.6 mph - N/A   Overcast
4:54 PM 87.8 °F 91.4 °F 68.0 °F 52% 29.83 in 10.0 mi West 11.5 mph - N/A   Mostly Cloudy
5:54 PM 86.0 °F 90.4 °F 69.8 °F 58% 29.84 in 10.0 mi West 12.7 mph 18.4 mph N/A   Mostly Cloudy
6:54 PM 86.0 °F 89.4 °F 68.0 °F 55% 29.83 in 10.0 mi WNW 9.2 mph - N/A   Mostly Cloudy
7:54 PM 84.2 °F 88.4 °F 69.8 °F 62% 29.84 in 10.0 mi West 10.4 mph - N/A   Mostly Cloudy
8:54 PM 80.6 °F 83.2 °F 68.0 °F 65% 29.86 in 10.0 mi West 8.1 mph - N/A   Mostly Cloudy
9:54 PM 77.0 °F - 70.0 °F 79% 29.87 in 10.0 mi West 6.9 mph - N/A   Mostly Cloudy
10:54 PM 73.9 °F - 70.0 °F 87% 29.88 in 10.0 mi WSW 4.6 mph - N/A   Mostly Cloudy
11:54 PM 73.0 °F - 70.0 °F 90% 29.88 in 10.0 mi West 4.6 mph - N/A   Partly Cloudy